Time,TemperatureF,DewpointF,PressureIn,WindDirection,WindDirectionDegrees,WindSpeedMPH,WindSpeedGustMPH,Humidity,HourlyPrecipIn,Conditions,Clouds,dailyrainin,SoftwareType,DateUTC
2013-03-27 00:09:00,50.5,40.7,29.99,SSE,164,0.0,7.0,69,0.00,,,-99.99,Weather View 32 v60,2013-03-27 07:09:00,
2013-03-27 00:19:00,50.2,41.1,29.99,East,93,0.0,7.0,71,0.00,,,-99.99,Weather View 32 v60,2013-03-27 07:19:00,
2013-03-27 00:29:00,50.2,41.1,29.99,East,93,0.0,7.0,71,0.00,,,-99.99,Weather View 32 v60,2013-03-27 07:29:00,
2013-03-27 00:39:00,49.6,40.6,29.99,East,93,0.0,0.0,71,0.00,,,-99.99,Weather View 32 v60,2013-03-27 07:39:00,
2013-03-27 00:47:00,49.6,40.6,29.99,East,93,0.0,0.0,71,0.00,,,-99.99,Weather View 32 v60,2013-03-27 07:47:00,
2013-03-27 00:59:00,49.3,41.3,29.99,ENE,73,0.0,0.0,74,0.00,,,-99.99,Weather View 32 v60,2013-03-27 07:59:00,
2013-03-27 01:10:00,49.3,41.3,29.99,ENE,68,0.0,0.0,74,0.00,,,-99.99,Weather View 32 v60,2013-03-27 08:10:00,
2013-03-27 01:19:00,48.9,41.0,29.99,ENE,68,0.0,0.0,74,0.00,,,-99.99,Weather View 32 v60,2013-03-27 08:19:00,
2013-03-27 01:29:00,48.9,41.0,29.99,ENE,68,0.0,0.0,74,0.00,,,-99.99,Weather View 32 v60,2013-03-27 08:29:00,
2013-03-27 01:39:00,48.9,41.0,29.99,ENE,68,0.0,0.0,74,0.00,,,-99.99,Weather View 32 v60,2013-03-27 08:39:00,
2013-03-27 01:48:00,48.9,41.0,29.99,ENE,68,0.0,0.0,74,0.00,,,-99.99,Weather View 32 v60,2013-03-27 08:48:00,
2013-03-27 01:59:00,49.5,41.5,29.99,ENE,68,0.0,0.0,74,0.00,,,-99.99,Weather View 32 v60,2013-03-27 08:59:00,
2013-03-27 02:09:00,49.5,41.5,29.99,ENE,68,0.0,0.0,74,0.00,,,-99.99,Weather View 32 v60,2013-03-27 09:09:00,
2013-03-27 02:19:00,49.1,41.2,29.99,ENE,68,0.0,0.0,74,0.00,,,-99.99,Weather View 32 v60,2013-03-27 09:19:00,
2013-03-27 02:30:00,48.7,40.8,29.99,ENE,68,0.0,0.0,74,0.00,,,-99.99,Weather View 32 v60,2013-03-27 09:30:00,
2013-03-27 02:39:00,48.4,40.5,29.99,ENE,68,0.0,0.0,74,0.00,,,-99.99,Weather View 32 v60,2013-03-27 09:39:00,
2013-03-27 02:48:00,48.4,40.5,29.99,ENE,68,0.0,0.0,74,0.00,,,-99.99,Weather View 32 v60,2013-03-27 09:48:00,
2013-03-27 02:59:00,47.8,40.3,29.96,ENE,68,0.0,0.0,75,0.00,,,-99.99,Weather View 32 v60,2013-03-27 09:59:00,
2013-03-27 03:10:00,47.8,40.6,29.96,ENE,68,0.0,0.0,76,0.00,,,-99.99,Weather View 32 v60,2013-03-27 10:10:00,
2013-03-27 03:19:00,47.8,41.0,29.96,ENE,68,0.0,0.0,77,0.00,,,-99.99,Weather View 32 v60,2013-03-27 10:19:00,
2013-03-27 03:29:00,48.2,41.7,29.96,ENE,68,0.0,0.0,78,0.00,,,-99.99,Weather View 32 v60,2013-03-27 10:29:00,
2013-03-27 03:39:00,48.4,42.2,29.96,SE,132,0.0,0.0,79,0.00,,,-99.99,Weather View 32 v60,2013-03-27 10:39:00,
2013-03-27 03:49:00,48.4,42.2,29.96,SE,132,0.0,0.0,79,0.00,,,-99.99,Weather View 32 v60,2013-03-27 10:49:00,
2013-03-27 03:59:00,48.6,42.3,29.96,East,101,0.0,0.0,79,0.00,,,-99.99,Weather View 32 v60,2013-03-27 10:59:00,
2013-03-27 04:09:00,48.4,41.8,29.96,East,101,0.0,0.0,78,0.00,,,-99.99,Weather View 32 v60,2013-03-27 11:09:00,
2013-03-27 04:19:00,48.4,41.8,29.96,East,101,0.0,0.0,78,0.00,,,-99.99,Weather View 32 v60,2013-03-27 11:19:00,
2013-03-27 04:29:00,48.4,41.8,29.96,East,101,0.0,0.0,78,0.00,,,-99.99,Weather View 32 v60,2013-03-27 11:29:00,
2013-03-27 04:39:00,48.4,41.8,29.96,East,101,0.0,0.0,78,0.00,,,-99.99,Weather View 32 v60,2013-03-27 11:39:00,
2013-03-27 04:49:00,48.4,41.8,29.96,East,101,0.0,0.0,78,0.00,,,-99.99,Weather View 32 v60,2013-03-27 11:49:00,
2013-03-27 05:00:00,48.2,42.0,29.96,East,101,0.0,0.0,79,0.00,,,-99.99,Weather View 32 v60,2013-03-27 12:00:00,
2013-03-27 05:09:00,48.0,41.8,29.96,East,101,0.0,0.0,79,0.00,,,-99.99,Weather View 32 v60,2013-03-27 12:09:00,
2013-03-27 05:20:00,47.7,41.5,29.96,East,101,0.0,0.0,79,0.00,,,-99.99,Weather View 32 v60,2013-03-27 12:20:00,
2013-03-27 05:29:00,47.5,41.3,29.96,East,101,0.0,0.0,79,0.00,,,-99.99,Weather View 32 v60,2013-03-27 12:29:00,
2013-03-27 05:40:00,47.3,41.4,29.96,East,101,0.0,0.0,80,0.00,,,-99.99,Weather View 32 v60,2013-03-27 12:40:00,
2013-03-27 05:50:00,47.3,41.8,29.96,East,101,0.0,0.0,81,0.00,,,-99.99,Weather View 32 v60,2013-03-27 12:50:00,
2013-03-27 05:59:00,47.3,41.8,29.96,East,101,0.0,0.0,81,0.00,,,-99.99,Weather View 32 v60,2013-03-27 12:59:00,
2013-03-27 06:10:00,47.1,41.9,29.96,East,101,0.0,0.0,82,0.00,,,-99.99,Weather View 32 v60,2013-03-27 13:10:00,
2013-03-27 06:20:00,46.9,41.7,29.96,East,101,0.0,0.0,82,0.00,,,-99.99,Weather View 32 v60,2013-03-27 13:20:00,
2013-03-27 06:30:00,47.1,42.2,29.96,East,101,0.0,0.0,83,0.00,,,-99.99,Weather View 32 v60,2013-03-27 13:30:00,
2013-03-27 06:40:00,46.9,42.0,29.96,East,101,0.0,0.0,83,0.00,,,-99.99,Weather View 32 v60,2013-03-27 13:40:00,
2013-03-27 06:50:00,46.9,42.0,29.96,East,101,0.0,0.0,83,0.00,,,-99.99,Weather View 32 v60,2013-03-27 13:50:00,
2013-03-27 06:59:00,47.1,42.2,29.96,East,101,0.0,0.0,83,0.00,,,-99.99,Weather View 32 v60,2013-03-27 13:59:00,
2013-03-27 07:09:00,47.3,42.7,29.99,East,101,0.0,0.0,84,0.00,,,-99.99,Weather View 32 v60,2013-03-27 14:09:00,
2013-03-27 07:19:00,47.7,43.1,29.99,East,101,0.0,0.0,84,0.00,,,-99.99,Weather View 32 v60,2013-03-27 14:19:00,
2013-03-27 07:29:00,48.2,43.6,29.99,East,101,0.0,0.0,84,0.00,,,-99.99,Weather View 32 v60,2013-03-27 14:29:00,
2013-03-27 07:39:00,48.9,44.3,29.99,East,101,0.0,0.0,84,0.00,,,-99.99,Weather View 32 v60,2013-03-27 14:39:00,
2013-03-27 07:49:00,49.6,45.0,29.99,East,101,0.0,0.0,84,0.00,,,-99.99,Weather View 32 v60,2013-03-27 14:49:00,
2013-03-27 07:59:00,50.4,45.4,29.99,SW,231,0.0,0.0,83,0.00,,,-99.99,Weather View 32 v60,2013-03-27 14:59:00,
2013-03-27 08:09:00,51.1,45.4,29.99,SE,130,0.0,0.0,81,0.00,,,-99.99,Weather View 32 v60,2013-03-27 15:09:00,
2013-03-27 08:19:00,52.0,45.3,29.99,SSE,155,0.0,0.0,78,0.00,,,-99.99,Weather View 32 v60,2013-03-27 15:19:00,
2013-03-27 08:29:00,53.1,45.0,29.99,ESE,109,0.0,0.0,74,0.00,,,-99.99,Weather View 32 v60,2013-03-27 15:29:00,
2013-03-27 08:39:00,54.1,44.9,29.99,WSW,244,0.0,0.0,71,0.00,,,-99.99,Weather View 32 v60,2013-03-27 15:39:00,
2013-03-27 08:49:00,55.0,44.6,29.99,WSW,245,0.0,0.0,68,0.00,,,-99.99,Weather View 32 v60,2013-03-27 15:49:00,
2013-03-27 08:59:00,55.4,44.2,29.99,NW,306,0.0,0.0,66,0.00,,,-99.99,Weather View 32 v60,2013-03-27 15:59:00,
2013-03-27 09:09:00,55.8,44.1,29.99,West,274,0.0,0.0,65,0.00,,,-99.99,Weather View 32 v60,2013-03-27 16:09:00,
2013-03-27 09:19:00,56.5,44.0,29.99,NNW,341,0.0,0.0,63,0.00,,,-99.99,Weather View 32 v60,2013-03-27 16:19:00,
2013-03-27 09:30:00,57.6,44.6,29.99,NW,314,0.0,0.0,62,0.00,,,-99.99,Weather View 32 v60,2013-03-27 16:30:00,
2013-03-27 09:39:00,59.0,44.7,29.99,SE,145,0.0,0.0,59,0.00,,,-99.99,Weather View 32 v60,2013-03-27 16:39:00,
2013-03-27 09:50:00,60.1,43.3,29.99,South,172,0.0,0.0,54,0.00,,,-99.99,Weather View 32 v60,2013-03-27 16:50:00,
2013-03-27 09:59:00,61.3,44.0,29.99,SSE,150,0.0,0.0,53,0.00,,,-99.99,Weather View 32 v60,2013-03-27 16:59:00,
2013-03-27 10:09:00,62.6,44.2,29.99,SW,215,0.0,0.0,51,0.00,,,-99.99,Weather View 32 v60,2013-03-27 17:09:00,
2013-03-27 10:19:00,63.7,44.1,29.99,NW,325,0.0,0.0,49,0.00,,,-99.99,Weather View 32 v60,2013-03-27 17:19:00,
2013-03-27 10:29:00,64.2,44.6,29.99,NW,308,0.0,0.0,49,0.00,,,-99.99,Weather View 32 v60,2013-03-27 17:29:00,
2013-03-27 10:39:00,64.8,44.0,29.99,NE,45,0.0,0.0,47,0.00,,,-99.99,Weather View 32 v60,2013-03-27 17:39:00,
2013-03-27 10:49:00,65.3,45.6,29.99,West,267,0.0,0.0,49,0.00,,,-99.99,Weather View 32 v60,2013-03-27 17:49:00,
2013-03-27 10:59:00,67.1,45.0,29.99,WSW,255,0.0,7.0,45,0.00,,,-99.99,Weather View 32 v60,2013-03-27 17:59:00,
2013-03-27 11:09:00,67.8,44.4,29.99,SW,228,0.0,7.0,43,0.00,,,-99.99,Weather View 32 v60,2013-03-27 18:09:00,
2013-03-27 11:19:00,68.7,44.6,29.99,SW,221,0.0,8.0,42,0.00,,,-99.99,Weather View 32 v60,2013-03-27 18:19:00,
2013-03-27 11:29:00,69.6,44.8,29.99,SW,226,4.0,8.0,41,0.00,,,-99.99,Weather View 32 v60,2013-03-27 18:29:00,
2013-03-27 11:39:00,69.4,43.3,29.99,West,271,4.0,8.0,39,0.00,,,-99.99,Weather View 32 v60,2013-03-27 18:39:00,
2013-03-27 11:50:00,69.3,44.5,29.99,West,276,0.0,8.0,41,0.00,,,-99.99,Weather View 32 v60,2013-03-27 18:50:00,
2013-03-27 11:59:00,69.1,43.7,29.99,SSW,210,0.0,9.0,40,0.00,,,-99.99,Weather View 32 v60,2013-03-27 18:59:00,
2013-03-27 12:09:00,68.4,43.0,29.99,SW,219,0.0,11.0,40,0.00,,,-99.99,Weather View 32 v60,2013-03-27 19:09:00,
2013-03-27 12:19:00,69.3,43.8,29.99,SSW,211,5.0,11.0,40,0.00,,,-99.99,Weather View 32 v60,2013-03-27 19:19:00,
2013-03-27 12:29:00,69.6,43.5,29.99,WSW,239,4.0,11.0,39,0.00,,,-99.99,Weather View 32 v60,2013-03-27 19:29:00,
2013-03-27 12:39:00,69.3,43.2,29.99,NW,317,0.0,11.0,39,0.00,,,-99.99,Weather View 32 v60,2013-03-27 19:39:00,
2013-03-27 12:50:00,69.3,42.5,29.99,SSW,203,0.0,11.0,38,0.00,,,-99.99,Weather View 32 v60,2013-03-27 19:50:00,
2013-03-27 12:59:00,70.3,42.8,29.99,SW,224,0.0,11.0,37,0.00,,,-99.99,Weather View 32 v60,2013-03-27 19:59:00,
2013-03-27 13:09:00,70.7,43.1,29.99,WNW,298,0.0,11.0,37,0.00,,,-99.99,Weather View 32 v60,2013-03-27 20:09:00,
2013-03-27 13:19:00,70.0,43.1,29.99,WNW,289,0.0,10.0,38,0.00,,,-99.99,Weather View 32 v60,2013-03-27 20:19:00,
2013-03-27 13:29:00,71.6,43.9,29.99,SW,220,0.0,10.0,37,0.00,,,-99.99,Weather View 32 v60,2013-03-27 20:29:00,
2013-03-27 13:39:00,72.9,44.3,29.99,WSW,243,0.0,10.0,36,0.00,,,-99.99,Weather View 32 v60,2013-03-27 20:39:00,
2013-03-27 13:49:00,71.8,43.3,29.99,SW,228,0.0,10.0,36,0.00,,,-99.99,Weather View 32 v60,2013-03-27 20:49:00,
2013-03-27 13:59:00,70.7,44.5,29.99,WNW,283,3.0,10.0,39,0.00,,,-99.99,Weather View 32 v60,2013-03-27 20:59:00,
2013-03-27 14:10:00,71.8,44.7,29.99,WSW,246,7.0,10.0,38,0.00,,,-99.99,Weather View 32 v60,2013-03-27 21:10:00,
2013-03-27 14:19:00,71.8,44.0,29.99,WNW,299,0.0,11.0,37,0.00,,,-99.99,Weather View 32 v60,2013-03-27 21:19:00,
2013-03-27 14:29:00,73.6,45.6,29.99,WSW,240,0.0,11.0,37,0.00,,,-99.99,Weather View 32 v60,2013-03-27 21:29:00,
2013-03-27 14:39:00,73.8,44.3,29.96,SSW,200,0.0,11.0,35,0.00,,,-99.99,Weather View 32 v60,2013-03-27 21:39:00,
2013-03-27 14:49:00,73.0,44.4,29.96,WSW,246,3.0,11.0,36,0.00,,,-99.99,Weather View 32 v60,2013-03-27 21:49:00,
2013-03-27 14:55:00,73.0,44.4,29.96,WSW,246,3.0,11.0,36,0.00,,,-99.99,Weather View 32 v60,2013-03-27 21:55:00,
2013-03-27 15:09:00,72.0,44.9,29.96,SW,234,4.0,11.0,38,0.00,,,-99.99,Weather View 32 v60,2013-03-27 22:09:00,
2013-03-27 15:19:00,71.8,46.1,29.96,SW,232,0.0,10.0,40,0.00,,,-99.99,Weather View 32 v60,2013-03-27 22:19:00,
2013-03-27 15:29:00,71.1,46.1,29.96,West,266,0.0,10.0,41,0.00,,,-99.99,Weather View 32 v60,2013-03-27 22:29:00,
2013-03-27 15:39:00,71.1,46.7,29.96,NW,313,0.0,10.0,42,0.00,,,-99.99,Weather View 32 v60,2013-03-27 22:39:00,
2013-03-27 15:49:00,71.2,46.9,29.96,NNW,331,0.0,10.0,42,0.00,,,-99.99,Weather View 32 v60,2013-03-27 22:49:00,
2013-03-27 15:55:00,71.2,46.9,29.96,NNW,331,0.0,10.0,42,0.00,,,-99.99,Weather View 32 v60,2013-03-27 22:55:00,
2013-03-27 16:09:00,72.1,47.1,29.96,WSW,246,0.0,12.0,41,0.00,,,-99.99,Weather View 32 v60,2013-03-27 23:09:00,
2013-03-27 16:19:00,72.3,47.2,29.96,SW,231,0.0,12.0,41,0.00,,,-99.99,Weather View 32 v60,2013-03-27 23:19:00,
2013-03-27 16:30:00,72.0,46.9,29.96,WSW,239,5.0,12.0,41,0.00,,,-99.99,Weather View 32 v60,2013-03-27 23:30:00,
2013-03-27 16:39:00,72.5,47.4,29.96,WSW,249,7.0,12.0,41,0.00,,,-99.99,Weather View 32 v60,2013-03-27 23:39:00,
2013-03-27 16:49:00,72.1,45.7,29.96,South,172,0.0,12.0,39,0.00,,,-99.99,Weather View 32 v60,2013-03-27 23:49:00,
2013-03-27 16:59:00,70.3,46.1,29.96,SW,223,0.0,11.0,42,0.00,,,-99.99,Weather View 32 v60,2013-03-27 23:59:00,
2013-03-27 17:09:00,68.9,46.0,29.99,NW,313,0.0,11.0,44,0.00,,,-99.99,Weather View 32 v60,2013-03-28 00:09:00,
2013-03-27 17:19:00,67.6,46.1,29.99,West,268,0.0,11.0,46,0.00,,,-99.99,Weather View 32 v60,2013-03-28 00:19:00,
2013-03-27 17:29:00,66.6,47.3,29.99,WNW,286,0.0,11.0,50,0.00,,,-99.99,Weather View 32 v60,2013-03-28 00:29:00,
2013-03-27 17:39:00,66.9,47.6,29.99,North,351,10.0,11.0,50,0.00,,,-99.99,Weather View 32 v60,2013-03-28 00:39:00,
2013-03-27 17:50:00,65.8,48.7,29.96,SSW,201,0.0,11.0,54,0.00,,,-99.99,Weather View 32 v60,2013-03-28 00:50:00,
2013-03-27 17:56:00,65.8,48.7,29.96,SSW,201,0.0,11.0,54,0.00,,,-99.99,Weather View 32 v60,2013-03-28 00:56:00,
2013-03-27 18:09:00,64.0,48.5,29.99,SW,226,0.0,11.0,57,0.00,,,-99.99,Weather View 32 v60,2013-03-28 01:09:00,
2013-03-27 18:19:00,63.7,49.0,29.99,NNW,341,0.0,11.0,59,0.00,,,-99.99,Weather View 32 v60,2013-03-28 01:19:00,
2013-03-27 18:29:00,63.0,48.8,29.99,SSW,208,0.0,11.0,60,0.00,,,-99.99,Weather View 32 v60,2013-03-28 01:29:00,
2013-03-27 18:39:00,62.2,48.6,29.99,NW,309,0.0,11.0,61,0.00,,,-99.99,Weather View 32 v60,2013-03-28 01:39:00,
2013-03-27 18:49:00,62.1,48.9,29.99,NNW,332,0.0,6.0,62,0.00,,,-99.99,Weather View 32 v60,2013-03-28 01:49:00,
2013-03-27 18:57:00,62.1,48.9,29.99,NNW,332,0.0,6.0,62,0.00,,,-99.99,Weather View 32 v60,2013-03-28 01:57:00,
2013-03-27 19:09:00,61.7,49.4,29.99,East,82,0.0,5.0,64,0.00,,,-99.99,Weather View 32 v60,2013-03-28 02:09:00,
2013-03-27 19:19:00,61.0,49.1,29.99,NW,305,0.0,5.0,65,0.00,,,-99.99,Weather View 32 v60,2013-03-28 02:19:00,
2013-03-27 19:29:00,60.8,49.3,29.99,North,2,0.0,5.0,66,0.00,,,-99.99,Weather View 32 v60,2013-03-28 02:29:00,
2013-03-27 19:39:00,60.4,49.0,29.99,NNW,346,0.0,5.0,66,0.00,,,-99.99,Weather View 32 v60,2013-03-28 02:39:00,
2013-03-27 19:49:00,59.9,49.3,29.99,NNW,346,0.0,5.0,68,0.00,,,-99.99,Weather View 32 v60,2013-03-28 02:49:00,
2013-03-27 19:57:00,59.9,49.3,29.99,NNW,346,0.0,5.0,68,0.00,,,-99.99,Weather View 32 v60,2013-03-28 02:57:00,
2013-03-27 20:09:00,59.7,49.1,29.99,SW,236,0.0,5.0,68,0.00,,,-99.99,Weather View 32 v60,2013-03-28 03:09:00,
2013-03-27 20:19:00,59.4,49.2,29.99,WSW,247,0.0,5.0,69,0.00,,,-99.99,Weather View 32 v60,2013-03-28 03:19:00,
2013-03-27 20:29:00,59.2,49.4,29.99,NW,315,0.0,5.0,70,0.00,,,-99.99,Weather View 32 v60,2013-03-28 03:29:00,
2013-03-27 20:39:00,58.8,49.0,29.99,West,269,0.0,5.0,70,0.00,,,-99.99,Weather View 32 v60,2013-03-28 03:39:00,
2013-03-27 20:49:00,58.8,49.0,29.99,NE,38,0.0,5.0,70,0.00,,,-99.99,Weather View 32 v60,2013-03-28 03:49:00,
2013-03-27 20:58:00,58.8,49.0,29.99,NE,38,0.0,5.0,70,0.00,,,-99.99,Weather View 32 v60,2013-03-28 03:58:00,
2013-03-27 21:09:00,58.6,48.5,30.02,ENE,67,0.0,5.0,69,0.00,,,-99.99,Weather View 32 v60,2013-03-28 04:09:00,
2013-03-27 21:19:00,58.6,48.5,30.02,NW,320,0.0,3.0,69,0.00,,,-99.99,Weather View 32 v60,2013-03-28 04:19:00,
2013-03-27 21:29:00,58.5,48.7,30.02,WSW,248,0.0,0.0,70,0.00,,,-99.99,Weather View 32 v60,2013-03-28 04:29:00,
2013-03-27 21:39:00,58.5,48.7,30.02,WNW,290,0.0,0.0,70,0.00,,,-99.99,Weather View 32 v60,2013-03-28 04:39:00,
2013-03-27 21:50:00,58.3,48.9,30.02,WSW,257,0.0,0.0,71,0.00,,,-99.99,Weather View 32 v60,2013-03-28 04:50:00,
2013-03-27 21:58:00,58.3,48.9,30.02,WSW,257,0.0,0.0,71,0.00,,,-99.99,Weather View 32 v60,2013-03-28 04:58:00,
2013-03-27 22:09:00,58.1,48.7,30.02,NNE,15,0.0,0.0,71,0.00,,,-99.99,Weather View 32 v60,2013-03-28 05:09:00,
2013-03-27 22:19:00,58.1,49.1,30.02,NNW,327,0.0,0.0,72,0.00,,,-99.99,Weather View 32 v60,2013-03-28 05:19:00,
2013-03-27 22:29:00,57.9,48.9,30.02,SW,227,0.0,0.0,72,0.00,,,-99.99,Weather View 32 v60,2013-03-28 05:29:00,
2013-03-27 22:39:00,57.7,48.8,30.02,WNW,296,0.0,0.0,72,0.00,,,-99.99,Weather View 32 v60,2013-03-28 05:39:00,
2013-03-27 22:49:00,57.4,48.8,30.02,NW,322,0.0,0.0,73,0.00,,,-99.99,Weather View 32 v60,2013-03-28 05:49:00,
2013-03-27 22:59:00,57.4,48.8,30.02,NW,322,0.0,0.0,73,0.00,,,-99.99,Weather View 32 v60,2013-03-28 05:59:00,
2013-03-27 23:09:00,57.2,49.3,30.02,WNW,299,0.0,0.0,75,0.00,,,-99.99,Weather View 32 v60,2013-03-28 06:09:00,
2013-03-27 23:19:00,57.2,49.7,30.02,SW,230,0.0,0.0,76,0.00,,,-99.99,Weather View 32 v60,2013-03-28 06:19:00,
2013-03-27 23:29:00,57.2,49.7,30.02,SW,230,0.0,0.0,76,0.00,,,-99.99,Weather View 32 v60,2013-03-28 06:29:00,
2013-03-27 23:39:00,57.2,49.7,30.02,WSW,252,0.0,0.0,76,0.00,,,-99.99,Weather View 32 v60,2013-03-28 06:39:00,
2013-03-27 23:49:00,56.8,49.3,30.02,WSW,245,0.0,0.0,76,0.00,,,-99.99,Weather View 32 v60,2013-03-28 06:49:00,